When you browse on this site, cookies collect data to enhance your experience and personalize the content and advertising you see.
Visit our Privacy Policy to learn more. By continuing to use the site, you agree to this use of cookies and data.
  • în România
  • Lista ţărilor
  • Pe 7 zile
  • Temperatura apei
  • Hartă satelitară
  • Meteo pe hartă
  • Widget-uri
  • user-avatar
    Intrare

    Meteo pe oră la Ballycastle

    Astăzi, 20 Ianuarie, Duminică

    Timp Temperatura Precipitaţii Vânt Presiune Umiditate
    00:00 +3°C° 0 mm 2 m/s 755 mmHg 95%
    01:00 +2°C° 0 mm 3 m/s 755 mmHg 95%
    02:00 +2°C° 0 mm 3 m/s 755 mmHg 95%
    03:00 +2°C° 0 mm 3 m/s 756 mmHg 96%
    04:00 +2°C° 0.1 mm 3 m/s 756 mmHg 95%
    05:00 +3°C° 0.1 mm 3 m/s 757 mmHg 95%
    06:00 +3°C° 0.1 mm 4 m/s 757 mmHg 95%
    07:00 +3°C° 0.5 mm 6 m/s 758 mmHg 93%
    08:00 +4°C° 0.5 mm 8 m/s 759 mmHg 90%
    09:00 +3°C° 0.5 mm 11 m/s 759 mmHg 87%
    10:00 +3°C° 0 mm 10 m/s 760 mmHg 84%
    11:00 +3°C° 0 mm 10 m/s 761 mmHg 80%
    12:00 +3°C° 0 mm 10 m/s 762 mmHg 76%
    13:00 +3°C° 0 mm 9 m/s 762 mmHg 75%
    14:00 +3°C° 0 mm 9 m/s 763 mmHg 74%
    15:00 +4°C° 0 mm 8 m/s 764 mmHg 72%
    16:00 +2°C° 0 mm 8 m/s 764 mmHg 73%
    17:00 +2°C° 0 mm 7 m/s 764 mmHg 74%
    18:00 +2°C° 0 mm 6 m/s 765 mmHg 75%
    19:00 +2°C° 0 mm 5 m/s 765 mmHg 76%
    20:00 +1°C° 0 mm 5 m/s 766 mmHg 78%
    21:00 +1°C° 0 mm 4 m/s 766 mmHg 79%
    22:00 +1°C° 0 mm 4 m/s 766 mmHg 81%
    23:00 +1°C° 0 mm 3 m/s 766 mmHg 83%

    Mâine, 21 Ianuarie, Luni

    Timp Temperatura Precipitaţii Vânt Presiune Umiditate
    00:00 +1°C° 0 mm 3 m/s 766 mmHg 85%
    01:00 0°C° 0 mm 4 m/s 765 mmHg 86%
    02:00 0°C° 0 mm 4 m/s 765 mmHg 87%
    03:00 -1°C° 0 mm 4 m/s 764 mmHg 88%
    04:00 -1°C° 0 mm 5 m/s 764 mmHg 86%
    05:00 -1°C° 0 mm 5 m/s 763 mmHg 85%
    06:00 -1°C° 0 mm 6 m/s 763 mmHg 83%
    07:00 -1°C° 0 mm 7 m/s 762 mmHg 82%
    08:00 -1°C° 0 mm 7 m/s 761 mmHg 81%
    09:00 -1°C° 0 mm 8 m/s 760 mmHg 80%
    10:00 0°C° 0 mm 9 m/s 759 mmHg 78%
    11:00 0°C° 0 mm 10 m/s 757 mmHg 76%
    12:00 +1°C° 0 mm 10 m/s 756 mmHg 73%
    13:00 +1°C° 0.5 mm 11 m/s 754 mmHg 77%
    14:00 0°C° 0.5 mm 12 m/s 752 mmHg 80%
    15:00 0°C° 0.5 mm 13 m/s 750 mmHg 83%
    16:00 0°C° 1.3 mm 12 m/s 750 mmHg 84%
    17:00 +1°C° 1.3 mm 11 m/s 749 mmHg 85%
    18:00 +1°C° 1.3 mm 10 m/s 748 mmHg 85%
    19:00 0°C° 0.1 mm 10 m/s 748 mmHg 84%
    20:00 -1°C° 0.1 mm 9 m/s 747 mmHg 83%
    21:00 -1°C° 0.1 mm 9 m/s 747 mmHg 82%
    22:00 -1°C° 0.2 mm 9 m/s 746 mmHg 82%
    23:00 -1°C° 0.2 mm 9 m/s 746 mmHg 82%

    Poimâine, 22 Ianuarie, Marţi

    Timp Temperatura Precipitaţii Vânt Presiune Umiditate
    00:00 -1°C° 0.2 mm 9 m/s 746 mmHg 82%
    01:00 -1°C° 0.3 mm 9 m/s 746 mmHg 82%
    02:00 -3°C° 0.3 mm 10 m/s 746 mmHg 82%
    03:00 -3°C° 0.3 mm 10 m/s 745 mmHg 82%
    04:00 -3°C° 0.4 mm 10 m/s 745 mmHg 81%
    05:00 -3°C° 0.4 mm 10 m/s 745 mmHg 80%
    06:00 -3°C° 0.4 mm 10 m/s 745 mmHg 79%
    07:00 -3°C° 0.3 mm 10 m/s 746 mmHg 78%
    08:00 -3°C° 0.3 mm 10 m/s 746 mmHg 77%
    09:00 -3°C° 0.3 mm 10 m/s 746 mmHg 75%
    10:00 -2°C° 0.2 mm 10 m/s 747 mmHg 73%
    11:00 -2°C° 0.2 mm 10 m/s 747 mmHg 71%
    12:00 0°C° 0.2 mm 9 m/s 748 mmHg 70%
    13:00 0°C° 0.2 mm 9 m/s 748 mmHg 70%
    14:00 0°C° 0.2 mm 9 m/s 748 mmHg 70%
    15:00 0°C° 0.2 mm 9 m/s 748 mmHg 70%
    16:00 -1°C° 0.2 mm 9 m/s 748 mmHg 72%
    17:00 -1°C° 0.2 mm 9 m/s 748 mmHg 74%
    18:00 -1°C° 0.2 mm 9 m/s 748 mmHg 76%
    19:00 -1°C° 0.2 mm 9 m/s 748 mmHg 76%
    20:00 -1°C° 0.2 mm 9 m/s 749 mmHg 77%
    21:00 -1°C° 0.2 mm 9 m/s 749 mmHg 78%
    22:00 -1°C° 0.3 mm 8 m/s 749 mmHg 78%
    23:00 -1°C° 0.3 mm 8 m/s 749 mmHg 79%

    23 Ianuarie, Miercuri

    Timp Temperatura Precipitaţii Vânt Presiune Umiditate
    00:00 -1°C° 0.3 mm 8 m/s 749 mmHg 79%
    01:00 -1°C° 0.2 mm 8 m/s 750 mmHg 79%
    02:00 -1°C° 0.2 mm 7 m/s 750 mmHg 80%
    03:00 -1°C° 0.2 mm 7 m/s 750 mmHg 80%
    04:00 -1°C° 0.1 mm 7 m/s 750 mmHg 81%
    05:00 -1°C° 0.1 mm 6 m/s 750 mmHg 82%
    06:00 -2°C° 0.1 mm 6 m/s 750 mmHg 82%
    07:00 -2°C° 0.1 mm 6 m/s 751 mmHg 82%
    08:00 0°C° 0.1 mm 5 m/s 751 mmHg 82%
    09:00 0°C° 0.1 mm 5 m/s 752 mmHg 82%
    10:00 0°C° 0 mm 5 m/s 752 mmHg 81%
    11:00 +1°C° 0 mm 5 m/s 752 mmHg 81%
    12:00 +2°C° 0 mm 5 m/s 752 mmHg 80%
    13:00 +2°C° 0 mm 5 m/s 752 mmHg 82%
    14:00 +2°C° 0 mm 5 m/s 752 mmHg 84%
    15:00 +2°C° 0 mm 5 m/s 752 mmHg 86%
    16:00 +2°C° 0.1 mm 5 m/s 753 mmHg 88%
    17:00 +2°C° 0.1 mm 5 m/s 753 mmHg 91%
    18:00 +3°C° 0.1 mm 4 m/s 753 mmHg 94%
    19:00 +3°C° 0 mm 4 m/s 753 mmHg 94%
    20:00 +3°C° 0 mm 3 m/s 753 mmHg 95%
    21:00 +3°C° 0 mm 3 m/s 753 mmHg 95%
    22:00 +3°C° 0 mm 3 m/s 753 mmHg 95%
    23:00 +3°C° 0 mm 3 m/s 753 mmHg 95%

    24 Ianuarie, Joi

    Timp Temperatura Precipitaţii Vânt Presiune Umiditate
    00:00 +3°C° 0 mm 4 m/s 753 mmHg 96%
    01:00 +3°C° 0.3 mm 3 m/s 753 mmHg 96%
    02:00 +3°C° 0.3 mm 3 m/s 753 mmHg 97%
    03:00 +4°C° 0.3 mm 2 m/s 753 mmHg 97%
    04:00 +4°C° 0.7 mm 2 m/s 753 mmHg 97%
    05:00 +5°C° 0.7 mm 2 m/s 753 mmHg 97%
    06:00 +6°C° 0.7 mm 1 m/s 753 mmHg 98%
    07:00 +5°C° 0.5 mm 2 m/s 754 mmHg 98%
    08:00 +5°C° 0.5 mm 2 m/s 754 mmHg 98%
    09:00 +5°C° 0.5 mm 2 m/s 754 mmHg 98%
    10:00 +6°C° 0.2 mm 2 m/s 755 mmHg 97%
    11:00 +6°C° 0.2 mm 2 m/s 755 mmHg 97%
    12:00 +6°C° 0.2 mm 2 m/s 755 mmHg 97%
    13:00 +7°C° 0.3 mm 3 m/s 755 mmHg 97%
    14:00 +7°C° 0.3 mm 4 m/s 755 mmHg 97%
    15:00 +8°C° 0.3 mm 4 m/s 755 mmHg 97%
    16:00 +8°C° 0.3 mm 5 m/s 756 mmHg 97%
    17:00 +8°C° 0.3 mm 7 m/s 756 mmHg 97%
    18:00 +7°C° 0.3 mm 8 m/s 757 mmHg 97%
    19:00 +8°C° 0 mm 7 m/s 757 mmHg 97%
    20:00 +8°C° 0 mm 7 m/s 757 mmHg 97%
    21:00 +8°C° 0 mm 6 m/s 758 mmHg 97%
    22:00 +8°C° 0 mm 6 m/s 758 mmHg 97%
    23:00 +8°C° 0 mm 6 m/s 758 mmHg 97%

    25 Ianuarie, Vineri

    Timp Temperatura Precipitaţii Vânt Presiune Umiditate
    00:00 +8°C° 0 mm 6 m/s 758 mmHg 97%
    01:00 +8°C° 0 mm 6 m/s 758 mmHg 97%
    02:00 +7°C° 0 mm 6 m/s 758 mmHg 96%
    03:00 +7°C° 0 mm 6 m/s 759 mmHg 95%
    04:00 +7°C° 0 mm 6 m/s 759 mmHg 95%
    05:00 +7°C° 0 mm 6 m/s 758 mmHg 95%
    06:00 +7°C° 0 mm 6 m/s 758 mmHg 94%
    07:00 +5°C° 0 mm 6 m/s 758 mmHg 94%
    08:00 +5°C° 0 mm 6 m/s 759 mmHg 95%
    09:00 +5°C° 0 mm 6 m/s 759 mmHg 95%
    10:00 +5°C° 0 mm 6 m/s 758 mmHg 92%
    11:00 +7°C° 0 mm 6 m/s 758 mmHg 90%
    12:00 +8°C° 0 mm 6 m/s 758 mmHg 88%
    13:00 +8°C° 0.1 mm 7 m/s 758 mmHg 89%
    14:00 +8°C° 0.1 mm 7 m/s 757 mmHg 90%
    15:00 +7°C° 0.1 mm 8 m/s 756 mmHg 91%
    16:00 +7°C° 0.3 mm 8 m/s 756 mmHg 92%
    17:00 +8°C° 0.3 mm 7 m/s 756 mmHg 93%
    18:00 +9°C° 0.3 mm 7 m/s 756 mmHg 95%
    19:00 +8°C° 0.1 mm 6 m/s 756 mmHg 94%
    20:00 +7°C° 0.1 mm 6 m/s 756 mmHg 94%
    21:00 +7°C° 0.1 mm 6 m/s 756 mmHg 93%
    22:00 +5°C° 0.2 mm 6 m/s 756 mmHg 94%
    23:00 +6°C° 0.2 mm 5 m/s 756 mmHg 94%
    Arată mai mult